User: anonymous
Location: Unspecified
(0.0000°N, 0.0000°E)
Time: 10:33:23
(UTC+00:00)
Language:

RESURS DK-1 - Orbit

View from above orbital plane
View from above orbital plane
View from above satellite
View from above satellite

Ground track
Ground track

The orbit data is extracted from the following two-line orbital elements,

1 29228U 06021A   14205.65765219  .00000106  00000-0  15957-4 0   680
2 29228 069.9374 269.0285 0005018 198.1450 283.1683 15.00730577449190
Epoch (UTC): 24 July 2014 15:47:01
Eccentricity: 0.0005018
inclination: 69.9374°
perigee height: 561 km
apogee height: 568 km
right ascension of ascending node: 269.0285°
argument of perigee: 198.1450°
revolutions per day: 15.00730577
mean anomaly at epoch: 283.1683°
orbit number at epoch: 44919

The dashed part of the orbit path shows where the satellite is in the earth's shadow,  

DLR